AirNav   Air Wisconsin Up To $57,000 Bonus
 
 1621 users online  

1D2 Canton-Plymouth-Mettetal Airport
Plymouth, Michigan, USA

GOING TO PLYMOUTH?


FAA INFORMATION EFFECTIVE 08 SEPTEMBER 2022

Location

FAA Identifier: 1D2
Lat/Long: 42-20-52.1000N 083-27-22.8000W
42-20.868333N 083-27.380000W
42.3478056,-83.4563333
(estimated)
Elevation: 696.1 ft. / 212.2 m (surveyed)
Variation: 05W (1980)
From city: 2 miles S of PLYMOUTH, MI
Time zone: UTC -4 (UTC -5 during Standard Time)
Zip code: 48187

Airport Operations

Airport use: Open to the public
Activation date: 03/1942
Control tower: no
ARTCC: CLEVELAND CENTER
FSS: LANSING FLIGHT SERVICE STATION
NOTAMs facility: LAN (NOTAM-D service available)
Attendance: SAT-SUN ON CALL, ALL MON-FRI 0700-1600
Wind indicator: lighted
Segmented circle: yes
Lights: ACTVT PAPI RWY 18 & 36; MIRL RWY 18/36 - CTAF.
Beacon: white-green (lighted land airport)
Operates sunset to sunrise.

Airport Communications

CTAF/UNICOM: 122.7
DETROIT APPROACH: 118.95
DETROIT DEPARTURE: 118.95
WX ASOS at YIP (7 nm SW): PHONE 734-961-6843
WX ASOS at DTW (9 nm SE): PHONE 734-955-5015
WX ASOS at ARB (15 nm SW): PHONE 734-668-7173
WX AWOS-3 at VLL (17 nm NE): 119.475 (248-288-4649)
WX ASOS at PTK (19 nm N): 125.025 (248-886-8551)
WX AWOS-3 at ONZ (20 nm SE): 119.675 (734-692-9686)

Nearby radio navigation aids

VOR radial/distance  VOR name  Freq  Var
SVMr124/7.1SALEM VORTAC114.3003W
DXOr340/9.0DETROIT VOR/DME113.4006W
CRLr003/18.0CARLETON VOR/DME115.7003W
FNTr167/39.3FLINT VORTAC116.9006W

 
NDB name  Hdg/Dist  Freq  Var  ID
GROSSE ILE325/20.041907WRYS .-. -.-- ...
TECUMSEH051/26.823906WTCU - -.-. ..-
ADRIAN050/39.827806WADG .- -.. --.

Airport Services

Fuel available: 100LL
100LL:AVBL H24 SELF SVC.
Parking: hangars and tiedowns
Airframe service: NONE
Powerplant service: NONE
Bottled oxygen: NONE
Bulk oxygen: NONE

Runway Information

Runway 18/36

Dimensions: 2302 x 75 ft. / 702 x 23 m
Surface: asphalt/grooved, in excellent condition
Weight bearing capacity: 
Single wheel: 12.5
Runway edge lights: medium intensity
RUNWAY 18  RUNWAY 36
Latitude: 42-21.057013N42-20.678285N
Longitude: 083-27.389617W083-27.369427W
Elevation: 696.0 ft.685.4 ft.
Traffic pattern: leftleft
Runway heading: 183 magnetic, 178 true003 magnetic, 358 true
Markings: basic, in good conditionbasic, in good condition
Visual slope indicator: 2-light PAPI on left (4.00 degrees glide path)4-light PAPI on right (3.00 degrees glide path)
Runway end identifier lights: no
Touchdown point: yes, no lightsyes, no lights
Obstructions: 15 ft. road, 312 ft. from runway, 134 ft. left and right of centerline, 7:1 slope to clear30 ft. tree, 767 ft. from runway, 130 ft. left of centerline, 18:1 slope to clear

Airport Ownership and Management from official FAA records

Ownership: Publicly-owned
Owner: STATE OF MICHIGAN - MDOT
2700 PORT LANSING RD
LANSING, MI 48906-2172
Phone 517-335-8521
Manager: JIM MORENCY
8550 N LILLEY RD
CANTON, MI 48187-2043
Phone 734-459-0012

Airport Operational Statistics

Aircraft based on the field: 78
Single engine airplanes: 72
Multi engine airplanes: 3
Helicopters: 3
    
Aircraft operations: avg 38/day *
71% local general aviation
29% transient general aviation
* for 12-month period ending 31 December 2020

Additional Remarks

NOISE SENSITIVE AREAS NORTH & SOUTH OF ARPT - CALL AMGR FOR NOISE ABATEMENT PROCS.
DEER & BIRDS ON & INVOF ARPT.
FOR CD CTC DETROIT APCH AT 734-955-1404.
TGL PROHIBITED DUE TO RWY LEN.

Instrument Procedures

NOTE: All procedures below are presented as PDF files. If you need a reader for these files, you should download the free Adobe Reader.

NOT FOR NAVIGATION. Please procure official charts for flight.
FAA instrument procedures published for use from 8 September 2022 at 0901Z to 6 October 2022 at 0900Z.

 
IAPs - Instrument Approach Procedures
RNAV (GPS)-B   download (163KB)
NOTE: Special Take-Off Minimums/Departure Procedures apply   download (352KB)

Other nearby airports with instrument procedures:

KYIP - Willow Run Airport (7 nm SW)
KDTW - Detroit Metro Wayne County Airport (9 nm SE)
Y47 - Oakland Southwest Airport (12 nm NW)
KARB - Ann Arbor Municipal Airport (15 nm SW)
KVLL - Oakland/Troy Airport (17 nm NE)
KPTK - Oakland County International Airport (19 nm N)
KONZ - Grosse Ile Municipal Airport (20 nm SE)
 
Loc | Ops | Rwys | IFR | FBO | Links
Com | Nav | Svcs | Stats | Notes
Area around 1D2 (Canton-Plymouth-Mettetal Airport)
 
Road maps at: MapQuest Bing Google
 
Aerial photo
WARNING: Photo may not be current or correct
Aerial photo of 1D2 (Canton-Plymouth-Mettetal Airport)
Photo by Mike Mee
Taken in the Summer of 2017
looking south.

Do you have a better or more recent aerial photo of Canton-Plymouth-Mettetal Airport that you would like to share? If so, please send us your photo.

 
Sectional chart

 
Airport distance calculator
Flying to Canton-Plymouth-Mettetal Airport? Find the distance to fly.

From to 1D2

Sunrise and sunset
Times for 03-Oct-2022
 Local
(UTC-4)
 Zulu
(UTC)
Morning civil twilight07:0611:06
Sunrise07:3411:34
Sunset19:1223:12
Evening civil twilight19:4023:40

Current date and time
Zulu (UTC)  03-Oct-2022 17:18:15
Local (UTC-4)  03-Oct-2022 13:18:15
 
METAR
KYIP 
8nm SW 
031653Z 09007KT 10SM CLR 18/03 A3040 RMK AO2 SLP292 T01780028
KDTW 
9nm SE 
031653Z 03009KT 340V060 10SM SCT250 17/03 A3040 RMK AO2 SLP296 T01670033
KARB 
15nm SW 
734-668-7173
031653Z 09009KT 10SM CLR 17/03 A3039 RMK AO2 SLP292 T01670028
KVLL 
17nm NE 
031655Z AUTO 09005KT 10SM CLR 15/01 A3042 RMK AO2 T01540008
KPTK 
19nm N 
031653Z 06008KT 10SM FEW230 15/01 A3040 RMK AO2 SLP298 T01500011
KDET 
20nm E 
031653Z 02008KT 10SM CLR 16/02 A3041 RMK AO2 SLP299 T01610022
TAF
KYIP 
8nm SW 
031120Z 0312/0412 02002KT P6SM SKC FM031500 07006KT P6SM FEW250
KDTW 
9nm SE 
031506Z 0315/0418 07006KT P6SM FEW250 FM040200 06002KT P6SM SKC
KPTK 
19nm N 
031120Z 0312/0412 02002KT P6SM SKC FM031500 06006KT P6SM FEW250
KDET 
20nm E 
031120Z 0312/0412 02002KT P6SM SKC FM031500 07006KT P6SM SCT250
NOTAMs
Click for the latest NOTAMs
NOTAMs are issued by the DoD/FAA and will open in a separate window not controlled by AirNav.

 

 
 

FBO, Fuel Providers, and Aircraft Ground Support

  
 Business Name 
 
 Contact 
 
 Services / Description 
 
Fuel Prices
 
Comments
  
MDOT - Office of Aeronautics 734-459-0012
no information available

If you are affiliated with MDOT - Office of Aeronautics and would like to show here your services, contact info, web link, logo, and more, click here
100LL
PS $6.85 
 Updated 15-Sep-2022
 
   write
PS=Pump service
Update Fuel Prices
 

Would you like to see your business listed on this page?

 If your business provides an interesting product or service to pilots, flight crews, aircraft, or users of the Canton-Plymouth-Mettetal Airport, you should consider listing it here.  To start the listing process, click on the button below
 
Add a business
 

Other Pages about Canton-Plymouth-Mettetal Airport

Page from the Michigan Airport Directory (PDF)
 
Update a link
 
Copyright © AirNav, LLC. All rights reserved. Privacy Policy  Contact